Theta_e
291 291 291 291 291 291 291 291 291 291 291 291 291 291 291 291 291 291 291 291 291 291 292 292 292 292 292 292 292 292 293 293 293 293 293 294 294 294 294 295 295 295 295 295 295 295 295 296 296 296 296 296 296 296 296 296 296 296 296 296 296 297 297 297 297 297 298 298 298 299 299 299 300 300 300 300 300 300 300 300 301 301 301 301 301 301
291 291 291 291 291 291 291 291 291 291 291 291 291 290 291 291 291 291 291 291 291 291 292 292 292 292 292 292 292 292 293 293 293 293 293 294 294 294 294 295 295 295 295 295 295 295 295 295 296 296 296 296 296 296 296 296 296 296 296 296 296 296 296 296 297 297 297 297 298 298 298 299 299 299 299 300 300 300 300 300 300 300 300 300 300 301
291 291 291 291 291 291 291 291 291 290 290 290 290 290 290 290 291 291 291 291 291 291 291 292 292 292 292 292 292 292 292 293 293 293 293 294 294 294 294 294 295 295 295 295 295 295 295 296 296 296 296 296 296 296 296 296 296 296 296 296 296 296 296 296 297 297 297 297 297 298 298 298 298 299 299 299 299 299 300 299 299 300 300 300 300 300
291 291 291 291 291 291 290 290 290 290 290 290 290 290 290 290 290 291 291 291 291 291 291 291 291 291 292 292 292 292 292 293 293 293 293 294 294 294 294 295 295 295 295 295 295 295 295 296 296 296 296 296 296 296 296 296 296 296 296 297 297 297 297 297 297 297 297 297 298 298 298 298 298 298 299 299 299 299 299 299 299 299 300 300 300 300
291 291 291 291 291 290 290 290 290 290 290 290 290 290 290 290 290 291 291 291 291 291 291 291 291 291 291 292 292 292 292 292 293 293 293 293 294 294 294 294 295 295 295 295 295 295 295 296 296 296 296 296 296 296 296 296 296 296 297 297 297 297 297 297 297 297 297 298 298 298 298 298 298 298 298 299 299 299 299 299 299 299 299 300 300 300
291 291 291 290 290 290 290 290 290 290 290 290 290 290 290 290 290 291 291 291 291 291 291 291 291 291 291 291 292 292 292 292 293 293 293 293 293 294 294 294 294 294 295 295 295 295 295 295 295 296 296 296 296 296 296 296 296 296 296 296 297 297 297 297 297 297 297 297 297 298 298 298 298 298 298 298 299 299 299 299 299 299 300 300 299 300
291 290 290 290 290 290 290 290 290 290 290 290 290 290 290 290 290 291 291 291 291 291 291 291 291 291 291 291 291 292 292 292 292 292 292 293 293 293 293 294 294 294 294 294 295 295 295 295 295 296 296 296 296 296 296 296 296 296 296 296 296 296 296 297 297 297 297 297 297 297 297 298 298 298 298 298 298 298 299 299 299 299 299 300 300 300
290 290 290 290 290 290 290 290 290 290 290 290 290 290 290 290 290 291 291 291 291 291 291 291 291 291 291 291 291 291 291 292 292 292 292 292 293 293 293 293 293 293 294 294 294 295 295 295 295 296 296 296 296 296 296 296 296 296 296 296 296 296 296 296 296 296 297 297 297 297 297 297 298 298 298 298 298 298 298 298 298 298 299 299 299 300
290 290 290 290 290 290 290 290 290 290 290 290 290 290 290 290 290 291 291 291 291 291 291 291 291 291 291 291 291 291 291 292 292 292 292 293 293 293 293 293 293 293 293 294 294 295 295 295 295 296 296 296 296 296 296 296 296 296 296 296 296 296 296 295 296 296 296 296 297 297 297 297 297 297 297 298 298 298 298 297 298 298 298 298 298 299
290 291 291 290 290 290 290 290 290 289 289 290 290 290 290 291 291 291 291 292 292 291 291 291 291 291 291 291 291 291 291 292 292 293 293 293 293 293 292 292 292 293 293 294 294 295 295 295 295 296 296 296 296 296 296 296 296 296 295 295 295 295 295 295 295 295 296 296 296 296 297 297 297 297 297 297 297 297 297 297 297 297 297 298 298 298
291 291 290 290 290 290 289 289 289 289 290 290 290 291 291 291 291 292 292 292 291 291 291 291 291 291 291 291 291 291 291 292 292 293 293 293 292 292 292 292 292 293 293 294 294 295 295 295 295 295 295 295 295 295 295 295 295 295 295 295 295 295 295 295 295 295 295 296 296 296 296 296 297 297 297 296 296 296 297 297 297 297 297 297 297 297
291 290 290 290 289 289 289 289 289 290 290 290 291 291 292 292 291 291 291 291 290 290 290 290 290 291 291 291 291 291 291 292 293 293 293 292 292 292 292 292 293 293 293 294 294 294 294 295 295 295 295 295 295 295 295 295 295 295 295 295 295 295 295 295 295 295 295 295 296 296 296 296 296 296 296 296 296 296 297 297 297 297 297 297 297 297
290 290 289 289 289 289 289 290 290 290 290 291 291 292 292 291 291 290 290 290 290 290 290 290 290 290 291 291 291 291 292 292 293 293 292 292 291 291 292 292 293 293 293 293 293 294 294 294 295 295 295 295 295 295 295 295 295 295 295 295 295 295 295 295 295 295 295 295 295 296 296 296 296 296 296 296 296 297 297 297 297 297 297 297 297 297
290 290 290 290 290 290 290 290 291 291 292 292 292 291 291 291 290 290 290 290 290 290 290 290 290 290 290 291 291 292 292 292 292 292 291 291 291 291 292 292 292 292 293 293 293 294 294 294 295 295 295 295 295 295 295 294 294 294 294 294 295 295 295 295 295 295 295 295 295 295 295 296 296 296 296 296 296 296 297 297 297 297 297 297 297 297
290 290 290 290 290 290 291 291 292 292 292 292 291 291 291 291 290 290 290 290 290 290 290 290 290 291 291 291 292 292 292 292 291 291 291 291 291 291 291 292 292 292 292 293 293 294 294 294 295 295 295 295 294 294 294 294 294 294 294 294 294 294 294 295 295 295 295 295 295 295 295 295 296 296 296 296 296 296 296 297 297 297 297 297 297 297
291 291 291 291 291 291 291 291 291 291 291 291 291 291 291 291 290 290 290 290 291 291 291 291 291 291 292 292 292 292 291 291 291 291 291 291 291 291 291 291 292 292 292 292 293 293 294 294 294 294 294 294 294 294 294 294 294 294 294 294 294 294 294 294 294 295 295 295 295 295 295 295 295 296 296 296 296 296 296 297 297 297 297 297 297 297
291 291 291 291 291 291 291 291 291 291 291 291 291 291 291 291 290 290 291 291 291 291 292 292 292 293 292 292 291 291 291 291 291 291 291 291 291 291 291 292 292 292 292 293 293 293 294 294 294 294 294 294 294 294 294 294 294 294 294 294 294 294 294 294 294 294 294 294 295 295 295 295 295 295 296 296 296 296 296 296 297 297 297 297 297 297
291 291 291 291 291 290 290 290 290 290 290 291 291 291 291 291 291 291 291 292 292 293 293 293 293 292 291 291 291 291 291 291 291 291 291 291 291 291 292 292 292 293 293 293 293 294 294 294 294 294 293 294 294 294 294 294 294 294 294 294 294 294 294 294 294 295 295 295 295 295 295 295 295 295 296 296 296 296 296 296 296 297 297 297 297 297
291 291 290 290 290 290 290 289 290 290 290 290 290 290 291 291 292 292 293 293 292 292 291 291 290 290 290 291 291 291 291 291 292 292 292 292 292 292 292 293 293 293 293 293 293 294 293 293 293 293 293 293 294 294 294 294 294 294 294 294 294 294 294 294 294 294 294 294 294 295 295 295 295 296 296 296 296 296 296 296 296 296 296 297 297 297
290 290 290 290 289 289 289 289 289 289 289 290 290 290 291 292 292 292 291 291 290 290 290 290 290 290 290 291 291 291 291 292 292 292 292 293 293 293 293 293 293 293 293 293 293 293 293 293 293 293 293 293 293 293 293 293 294 294 294 294 294 294 294 294 294 294 294 294 294 294 294 295 295 295 295 296 296 296 296 296 296 296 296 296 296 297
290 290 289 289 289 289 289 289 289 289 289 290 290 291 291 291 291 291 290 290 290 290 290 290 290 290 290 291 291 292 292 292 292 292 293 293 293 293 293 293 293 292 292 292 292 292 292 292 292 292 292 292 292 293 293 293 294 294 294 294 294 293 293 294 294 294 294 294 294 295 295 295 295 295 295 295 295 296 296 296 296 296 296 296 296 296
290 290 289 289 289 289 289 289 289 289 290 290 290 291 291 291 291 290 290 290 290 290 290 290 290 291 291 291 291 291 291 292 292 292 292 292 292 292 292 292 292 292 292 291 291 292 292 292 292 292 292 292 292 293 293 293 293 293 294 294 294 293 293 293 293 294 294 294 294 294 295 295 294 295 295 295 295 296 296 296 296 296 296 296 296 296
290 290 290 289 289 289 289 289 290 290 290 290 291 291 291 290 290 290 290 290 290 290 290 290 291 291 291 291 291 291 291 291 291 292 292 292 292 292 291 291 291 291 291 291 291 291 291 291 292 292 292 292 292 292 293 293 293 293 293 293 294 293 293 293 293 293 293 294 294 294 294 294 294 295 295 295 295 296 296 296 296 296 296 296 296 296
289 290 289 289 289 289 290 290 290 290 290 290 291 291 290 290 290 290 290 290 290 291 291 291 291 291 291 291 291 291 291 292 292 292 292 292 292 291 291 291 291 291 291 291 291 291 291 291 291 291 291 292 292 292 292 292 293 293 293 293 294 294 294 294 293 293 293 293 294 294 294 294 295 295 295 295 295 296 296 295 295 295 295 295 295 295
290 290 290 290 290 290 290 290 290 290 291 291 291 291 291 291 291 291 291 291 291 291 291 291 291 291 291 291 292 291 291 291 290 290 290 291 291 291 291 291 291 291 291 291 291 291 291 291 291 291 291 291 292 292 292 292 293 293 293 294 294 294 294 294 294 293 293 293 293 293 293 294 294 295 295 295 295 295 295 295 295 294 294 294 294 294
290 290 290 290 290 291 291 291 291 292 292 292 292 292 291 291 291 291 292 292 292 291 291 291 291 291 291 291 291 290 290 290 290 290 290 290 290 291 291 291 291 291 291 291 291 291 291 291 291 291 291 291 292 292 292 292 293 293 294 294 293 293 293 293 293 293 293 293 293 293 293 293 294 294 295 295 295 294 294 294 294 293 293 293 293 293
292 292 292 292 292 292 292 292 293 293 293 293 293 293 292 292 292 292 292 292 292 291 291 291 291 291 290 290 290 289 289 289 289 289 289 290 290 290 290 290 290 290 290 290 291 291 291 291 291 291 291 291 291 291 291 292 292 293 293 293 293 293 293 293 293 293 293 293 293 293 293 293 293 294 294 294 294 293 293 293 293 293 293 293 292 292
292 292 292 292 292 292 292 293 293 293 293 293 293 293 293 292 292 292 292 292 291 291 291 290 290 290 290 289 289 289 289 289 289 289 289 289 290 290 290 290 290 290 291 291 291 291 291 291 290 290 290 290 290 290 290 291 292 292 292 292 292 292 292 293 293 293 292 292 292 293 293 293 293 293 294 293 293 293 293 293 293 292 292 292 292 291
291 291 291 291 291 292 292 292 292 292 292 292 292 292 292 292 292 292 292 292 291 291 290 290 290 290 289 289 289 289 289 289 289 289 289 290 290 290 290 290 290 290 290 290 290 290 290 290 290 290 290 290 290 290 290 290 291 290 290 291 291 291 292 292 292 292 292 292 292 293 293 293 293 293 293 293 293 293 293 292 292 292 291 291 291 291
291 291 291 291 291 291 291 291 291 291 291 291 291 291 292 292 292 292 291 291 290 290 290 290 289 289 289 289 289 289 289 289 289 289 289 289 290 290 290 289 289 289 289 289 290 290 290 290 290 290 289 289 289 289 289 289 289 289 289 290 290 291 292 292 292 292 292 292 292 292 292 292 292 292 293 293 293 292 292 292 292 291 291 291 291 290
291 291 291 291 291 291 291 291 291 291 291 291 291 291 291 291 291 291 290 290 290 290 289 289 289 289 289 289 289 289 289 289 289 289 289 289 289 289 288 288 288 289 289 290 290 290 290 290 289 289 289 289 288 288 288 289 289 289 289 290 291 291 292 292 292 292 292 292 292 292 292 292 292 292 292 292 292 292 292 292 291 291 291 290 290 290
291 291 291 290 290 290 290 291 291 291 291 291 291 290 290 290 290 290 290 289 289 289 289 289 289 289 289 289 289 289 289 289 289 288 288 288 288 288 289 289 289 289 290 290 289 289 289 289 288 288 288 288 288 288 288 288 289 289 290 291 291 292 292 292 292 292 292 292 292 292 292 292 292 292 292 292 292 292 292 291 291 291 290 290 290 290
290 290 290 290 290 290 290 290 290 290 290 290 290 290 290 290 290 289 289 289 289 289 289 288 288 289 289 289 289 289 289 289 288 288 288 288 289 289 289 289 289 289 289 289 288 288 288 288 287 287 287 287 287 288 288 289 289 290 291 291 291 291 291 291 292 292 292 292 292 292 292 292 292 292 292 292 292 292 291 291 291 291 290 290 289 289
289 289 289 289 289 289 290 290 290 289 289 289 289 289 289 289 289 289 289 289 289 288 288 288 289 289 289 289 289 289 289 288 288 288 288 288 289 289 289 289 288 288 288 288 288 287 287 287 287 287 287 287 288 288 289 289 290 290 290 290 290 291 291 291 291 292 292 292 292 292 292 292 292 292 292 292 292 292 291 291 291 291 290 290 290 289
289 289 289 289 289 289 289 289 289 289 289 289 289 289 289 289 289 289 288 288 288 288 288 288 289 289 289 289 289 289 289 289 288 288 288 288 288 288 288 288 288 288 288 287 287 287 287 287 287 287 287 287 288 288 288 288 289 289 289 290 290 290 291 291 291 291 292 292 292 292 292 292 292 292 292 292 292 291 291 291 291 290 290 290 290 290
288 288 288 289 289 289 289 289 289 289 289 289 289 289 289 288 288 288 288 288 288 288 288 288 289 289 289 289 289 289 289 289 288 288 288 288 288 287 287 288 287 287 287 287 286 286 286 287 287 287 287 287 287 287 287 287 288 288 289 290 290 291 291 291 291 291 292 292 292 292 292 292 292 292 292 291 291 291 291 291 290 290 290 290 290 290
288 288 288 288 288 288 289 289 289 289 289 289 288 288 288 288 288 288 288 288 288 288 288 288 288 289 289 289 289 289 289 288 288 288 288 288 287 287 287 287 287 287 286 286 286 286 287 287 287 287 286 287 287 287 287 288 288 289 289 290 290 291 291 291 291 291 292 292 292 292 292 292 292 292 291 291 291 291 291 291 290 290 290 290 290 290
288 288 288 288 288 288 288 288 288 288 288 288 288 288 288 288 288 288 288 288 288 288 288 288 288 288 288 288 288 289 288 288 288 288 287 287 286 286 287 286 286 286 286 286 286 286 287 286 286 286 286 286 286 287 287 288 288 289 289 289 290 290 291 291 291 291 292 292 292 292 292 292 291 291 291 291 291 290 290 290 290 290 290 290 289 289
288 288 288 288 288 288 288 288 288 288 288 288 287 287 287 288 288 288 288 288 288 288 288 288 288 288 288 288 288 288 288 288 287 287 286 286 286 286 286 286 286 286 286 286 286 286 286 286 286 286 286 286 287 287 287 288 288 288 289 289 290 290 291 291 291 292 292 292 292 292 292 291 291 291 291 290 290 290 290 289 289 289 289 289 289 289
287 287 287 288 288 288 288 288 288 288 287 287 287 287 287 288 288 288 288 288 288 288 288 288 288 288 288 288 288 288 287 287 287 286 286 286 286 286 286 286 286 286 286 286 286 286 286 286 286 286 286 286 287 287 287 287 288 288 289 289 290 290 291 291 291 291 292 292 292 292 292 291 291 291 290 290 290 290 289 289 289 289 288 288 288 288
287 287 287 287 288 288 288 288 287 287 287 287 287 288 288 288 289 289 289 289 288 288 288 288 288 288 288 288 287 287 287 287 287 287 286 286 286 286 286 286 286 286 286 286 286 286 286 286 286 286 286 286 287 287 287 288 288 288 289 290 290 291 291 291 291 291 292 292 292 292 291 291 291 290 290 290 289 289 289 289 289 288 288 288 288 288
287 287 287 287 287 287 287 287 287 287 286 287 287 288 288 288 289 289 289 289 288 288 288 288 288 288 288 288 288 287 287 287 287 287 286 286 286 286 286 286 286 286 286 286 286 286 286 286 286 286 286 287 287 287 288 288 288 289 289 290 290 291 291 291 291 291 292 292 292 292 291 291 290 290 289 289 289 289 288 288 288 288 288 288 288 288
287 287 287 287 287 287 287 287 286 286 286 286 287 287 288 288 288 289 288 288 288 288 288 288 288 288 288 288 288 287 287 287 287 287 287 287 286 286 286 286 286 286 286 286 286 286 286 286 286 287 287 287 287 288 288 288 289 289 290 290 290 290 291 291 291 291 292 291 291 291 290 290 289 289 289 289 288 288 288 288 288 288 288 288 288 288
286 286 287 287 287 286 286 286 286 286 286 287 287 288 288 288 288 288 288 287 287 287 287 287 287 287 287 287 287 287 287 287 287 287 287 286 286 286 286 286 286 286 286 286 286 286 286 286 287 287 287 287 288 288 289 289 289 289 290 290 290 290 291 291 291 291 291 291 291 290 290 290 289 289 289 288 288 288 288 288 288 288 288 288 288 288
286 286 287 286 286 286 286 286 286 287 287 288 288 288 288 288 287 287 287 287 287 287 287 287 287 287 287 287 287 287 287 287 287 287 286 286 286 286 286 286 286 286 286 286 286 286 286 287 287 287 287 288 288 288 289 289 289 289 289 290 290 290 290 291 291 291 291 291 291 290 290 289 289 289 288 288 288 287 287 287 287 288 288 288 288 288
286 286 286 286 286 286 286 286 287 287 288 287 287 287 287 287 287 287 287 287 287 287 287 287 287 287 287 287 287 287 287 287 287 287 286 286 286 286 286 286 286 286 286 286 286 286 287 287 287 287 288 288 288 288 288 288 289 289 289 290 290 290 290 291 291 291 291 290 290 290 289 289 288 288 288 288 287 287 287 287 287 287 287 287 287 287
286 286 286 286 285 285 286 286 287 287 287 287 287 287 287 287 287 287 286 286 287 287 287 287 287 287 287 287 287 287 287 287 287 286 286 286 285 285 285 286 286 286 286 287 287 287 287 287 287 287 288 288 288 288 288 289 289 289 290 290 290 290 290 290 291 290 290 290 290 289 289 288 288 287 287 287 287 287 287 287 287 287 287 287 287 287
286 286 286 285 285 285 286 286 287 286 286 286 286 286 286 286 286 286 286 286 286 286 286 286 286 286 286 287 287 287 287 287 287 286 286 286 285 285 285 285 286 286 286 287 287 287 287 287 287 287 287 288 288 288 289 289 289 289 290 290 290 290 290 290 290 290 290 289 289 289 288 288 287 287 287 287 286 286 286 286 286 287 287 287 287 287
286 286 285 285 285 285 286 286 286 286 286 286 286 285 285 285 286 286 286 286 286 286 286 286 286 286 286 287 287 287 287 287 287 286 286 286 285 285 285 285 286 286 287 287 287 286 286 286 287 287 287 288 288 288 289 289 289 289 290 290 290 290 290 290 290 290 289 289 288 288 287 287 287 287 286 286 286 286 286 286 286 287 287 288 288 288
285 285 285 285 285 285 286 286 286 286 286 285 285 285 285 285 285 285 285 285 285 285 286 286 286 286 286 287 287 287 287 287 287 286 286 286 285 285 285 285 286 286 287 286 286 286 286 286 287 287 288 288 289 289 289 289 289 289 289 290 290 290 290 290 290 289 289 288 288 287 287 287 287 286 286 286 286 286 286 286 287 287 287 288 288 288
285 285 285 285 285 285 286 286 286 286 285 285 285 285 285 285 285 284 285 285 285 285 285 285 285 286 286 286 286 287 287 287 287 286 286 286 285 285 285 285 286 286 286 286 286 285 286 286 286 287 288 289 289 289 288 288 288 288 288 289 289 290 290 289 289 289 288 288 288 287 287 287 287 287 287 286 286 286 286 286 286 287 287 287 287 287
Wind_Speed
18 18 18 17 18 19 20 19 19 20 20 20 20 20 20 21 21 21 22 22 22 23 23 23 23 23 23 23 23 24 24 24 25 25 26 26 26 26 26 26 26 26 25 25 25 25 25 24 24 24 24 24 25 25 25 25 24 24 24 24 24 24 24 25 25 25 25 25 26 26 25 25 25 24 24 23 23 22 21 20 20 20 20 20 21 20
18 18 18 18 18 19 20 19 19 19 20 20 20 21 21 22 22 23 22 22 22 22 22 22 22 22 23 23 23 24 24 24 25 25 26 26 26 26 26 26 26 26 26 26 26 26 25 25 25 24 24 24 24 24 24 24 24 24 24 24 24 24 24 24 24 25 25 25 25 25 25 25 25 25 25 25 24 23 22 22 21 21 21 21 20 20
18 18 18 18 18 19 19 19 19 18 19 20 21 22 22 23 23 23 22 22 21 21 21 21 22 22 23 23 23 23 24 24 24 25 25 26 26 27 27 27 27 27 27 27 27 26 25 25 25 24 24 24 24 24 24 24 24 23 23 23 23 23 23 24 24 24 25 25 25 25 25 25 25 25 25 25 25 24 24 23 23 22 22 22 22 21
19 19 19 19 18 18 19 19 19 19 20 21 22 22 22 23 22 22 21 21 21 21 21 21 22 22 23 23 23 23 23 24 24 25 26 26 27 27 27 27 27 27 27 27 26 26 25 25 24 24 24 23 23 24 24 24 24 23 23 23 23 23 23 23 23 24 24 24 24 24 24 25 25 25 25 25 24 24 24 24 24 24 24 23 23 23
19 18 19 19 19 19 20 20 20 21 21 21 22 22 22 21 21 21 21 21 21 21 21 21 22 22 22 23 23 23 24 24 24 25 25 26 26 26 26 26 26 26 26 25 25 25 25 24 24 24 24 23 23 23 23 23 23 23 23 22 22 22 23 23 23 23 24 24 24 23 24 24 24 24 24 23 23 23 23 23 23 24 24 24 24 23
19 19 20 20 20 21 21 21 21 21 21 21 21 20 20 20 20 20 20 20 21 21 22 22 22 22 22 23 23 23 23 24 24 24 24 25 25 25 25 25 25 25 25 25 25 25 25 25 25 24 24 23 23 23 23 22 22 22 22 22 22 22 22 22 22 23 23 23 23 23 23 23 23 23 22 22 21 22 22 22 22 22 23 23 23 23
21 21 21 21 22 22 21 21 20 20 19 20 20 20 19 20 20 20 20 21 21 21 22 22 22 22 22 22 22 22 22 22 22 23 23 23 23 23 24 24 25 25 25 25 25 25 25 25 25 25 24 24 23 22 22 22 22 21 21 21 21 21 21 21 21 22 22 22 23 23 23 22 22 21 21 20 20 20 21 21 21 21 21 22 22 21
23 23 22 21 21 21 20 19 19 18 18 19 19 20 20 20 20 20 21 21 21 21 21 21 21 20 20 20 21 21 21 21 21 22 22 22 22 23 23 24 25 26 26 26 26 26 26 26 25 25 24 24 23 23 22 22 21 21 21 21 21 21 21 21 21 21 21 21 22 22 22 22 21 20 20 20 20 20 20 20 20 20 21 21 21 20
23 23 22 21 19 19 20 20 19 18 19 19 20 20 21 21 21 20 20 20 19 19 19 19 19 19 19 19 20 20 21 21 21 22 22 22 22 23 24 25 26 26 26 26 26 26 26 25 25 24 24 23 23 22 22 22 21 21 22 22 21 21 21 21 21 21 21 21 21 21 21 21 21 20 20 20 20 20 20 20 20 20 20 20 20 20
21 20 20 19 18 18 19 20 20 20 19 20 21 20 20 20 20 19 19 19 18 18 18 18 19 19 20 19 19 20 21 22 22 22 22 22 23 23 24 25 25 25 25 25 25 25 25 24 24 23 22 22 22 21 21 21 21 21 22 22 21 21 21 20 20 20 20 20 20 20 20 20 20 20 20 20 20 20 20 20 20 20 20 20 20 20
18 18 19 19 20 19 19 20 20 20 20 20 20 20 18 18 17 17 18 18 18 18 18 18 19 19 20 20 20 20 21 22 22 21 21 21 22 23 24 24 24 23 23 23 23 23 23 22 21 21 20 20 20 19 20 20 20 21 21 21 21 21 20 20 20 20 20 20 20 20 20 20 19 20 20 20 20 20 20 20 20 20 20 20 20 20
18 19 19 19 20 20 21 21 22 21 21 19 19 18 16 16 15 16 18 18 19 19 19 19 19 19 20 21 21 21 21 20 20 20 20 20 21 22 22 22 21 20 20 21 21 21 21 20 20 19 18 18 18 18 18 18 19 20 20 20 20 20 20 20 20 20 20 20 20 20 20 20 20 20 20 20 20 20 20 20 20 19 19 20 20 20
19 20 20 20 20 20 20 21 21 20 19 17 15 14 15 15 15 16 18 19 20 20 20 20 20 20 20 21 22 22 21 19 19 19 19 20 20 21 20 20 19 19 20 20 21 20 20 20 19 18 17 17 16 17 17 18 18 19 19 19 20 20 20 20 20 20 20 20 20 20 20 20 20 20 20 19 19 19 19 19 19 19 19 19 20 20
20 20 20 20 19 19 19 19 18 17 16 14 14 14 15 15 16 16 18 20 20 20 20 21 21 21 22 22 21 21 19 19 18 19 19 20 20 19 19 19 19 20 20 21 21 21 21 20 19 18 17 17 17 17 17 18 18 19 19 20 20 21 21 21 21 21 20 20 20 20 21 21 20 20 20 19 19 19 19 19 19 19 19 20 20 20
18 18 19 19 18 18 17 17 16 17 17 16 16 17 17 17 17 16 17 19 20 20 20 20 21 22 22 21 19 19 18 18 18 18 19 19 19 19 19 19 20 20 20 21 21 21 21 20 19 18 18 18 18 18 18 18 19 19 20 20 21 21 21 21 21 21 21 20 20 21 21 21 21 20 20 20 20 19 19 19 19 20 20 20 20 20
19 18 18 18 18 18 18 18 18 19 19 19 19 18 18 18 17 17 17 18 20 20 18 18 18 18 20 19 18 17 17 17 18 18 19 20 20 19 19 19 20 20 21 21 21 21 20 20 19 19 18 18 18 18 18 18 19 20 20 20 21 21 21 21 21 21 21 21 21 21 21 21 21 21 21 20 20 20 20 20 20 20 20 19 20 20
19 18 17 17 18 19 20 20 19 19 19 19 18 17 17 17 18 18 18 19 19 18 16 14 11 9 12 18 19 17 17 17 18 18 19 20 21 20 20 19 19 20 20 21 21 21 20 19 19 19 18 18 18 18 18 18 19 19 20 20 21 21 21 21 21 21 21 21 21 21 21 21 21 21 21 21 21 20 20 20 20 20 20 19 19 20
19 18 19 19 20 21 21 20 19 19 18 17 16 17 18 19 20 20 19 18 16 14 14 14 13 11 10 15 18 18 18 18 18 18 19 20 21 21 20 19 19 20 20 20 20 20 20 19 19 19 19 18 18 18 18 19 19 19 19 19 20 20 20 20 20 20 20 20 21 21 21 21 21 21 21 21 20 20 20 20 20 19 19 19 19 19
20 19 19 20 21 22 22 21 21 20 19 18 18 19 21 20 19 17 16 15 15 16 17 17 17 18 17 19 20 21 20 18 18 18 18 19 20 20 19 19 20 19 19 19 19 19 20 20 19 19 19 19 19 18 18 18 18 18 18 18 19 19 19 20 20 20 20 20 20 20 20 20 20 20 20 20 20 19 19 19 19 19 19 19 19 19
21 21 22 22 23 23 22 22 22 22 21 21 20 19 19 19 18 18 18 18 19 20 20 20 20 21 22 23 24 23 20 18 18 18 18 18 19 19 19 20 20 19 18 19 19 20 20 20 20 19 19 19 19 18 18 18 17 17 17 18 20 20 20 19 19 19 19 20 20 20 20 20 20 20 19 19 19 19 19 18 18 18 18 18 18 18
22 23 24 23 23 22 22 23 23 23 22 22 20 19 18 19 19 20 20 20 20 21 21 20 22 24 24 23 22 22 22 20 19 17 16 16 17 17 17 17 18 19 19 20 20 20 20 20 20 20 19 19 19 18 18 17 17 17 18 19 20 20 19 19 18 19 19 19 19 19 19 19 20 19 19 19 18 18 18 18 18 18 17 17 17 17
23 23 24 23 23 23 23 24 24 23 22 21 21 20 20 20 20 20 21 21 21 21 22 22 24 25 24 23 23 25 24 22 20 18 16 14 14 16 17 17 18 20 20 21 20 20 20 19 19 19 19 19 19 18 17 17 17 17 18 19 19 19 18 18 18 18 18 18 18 18 18 19 19 19 19 18 18 18 17 17 17 16 16 16 16 16
24 25 25 24 24 24 24 25 24 23 22 22 22 23 22 22 22 22 22 22 22 23 25 26 26 25 24 24 24 25 24 23 22 19 15 12 14 18 19 19 19 20 20 20 20 19 19 19 19 19 19 18 18 18 17 17 17 18 19 19 19 19 18 18 18 17 17 17 17 17 18 18 19 18 18 18 17 17 16 16 15 15 15 14 14 14
25 26 26 25 25 25 26 25 25 24 23 23 24 24 25 25 24 24 24 24 24 25 25 24 23 22 21 20 20 20 18 16 16 16 14 13 15 17 18 17 18 19 19 19 19 19 19 19 18 18 18 18 18 17 17 17 18 19 19 19 19 19 19 18 17 17 17 17 17 17 17 18 18 17 17 16 15 15 14 13 13 13 13 13 13 14
26 26 27 27 27 27 27 26 26 26 25 25 26 26 26 25 24 23 23 24 24 24 22 19 15 13 12 12 12 13 13 14 15 16 16 15 15 16 16 15 15 17 19 19 19 18 18 18 17 17 18 18 18 18 19 19 19 19 19 19 19 19 19 18 17 16 16 16 16 17 17 17 17 16 15 14 13 12 11 11 11 11 12 12 13 13
28 28 29 29 29 29 29 29 29 29 29 29 29 28 26 26 25 23 22 21 20 18 15 11 9 10 12 14 15 16 18 18 18 18 18 16 15 15 15 14 15 17 19 19 18 17 16 16 17 17 18 18 19 19 20 19 19 18 18 18 19 19 19 19 18 17 16 16 17 17 17 16 16 14 13 12 11 10 10 10 11 11 11 12 13 14
30 31 31 31 31 30 30 31 31 31 31 30 30 29 28 28 26 22 20 18 17 15 13 11 10 11 15 16 18 19 20 19 18 17 17 16 15 14 16 16 17 17 17 16 16 15 15 16 18 18 19 19 19 20 19 18 17 16 16 16 17 18 19 20 19 18 17 17 17 17 16 16 15 14 12 11 10 10 10 10 10 11 11 12 13 14
28 29 30 30 30 30 30 30 29 29 29 28 28 27 27 26 24 21 19 17 15 14 13 12 10 10 12 15 18 20 20 18 17 17 16 15 14 14 15 16 15 15 14 14 15 16 17 18 19 19 19 18 18 17 16 15 15 15 15 17 18 19 20 20 20 19 18 17 17 17 16 15 14 13 12 11 10 9 9 9 10 11 12 12 13 13
26 27 28 28 28 28 27 26 26 25 25 25 25 25 25 24 22 20 19 17 15 14 14 15 15 14 14 17 19 19 18 17 16 14 13 11 10 11 12 14 14 14 14 15 17 18 19 18 17 16 15 15 14 14 14 14 15 16 18 19 20 20 20 20 19 17 16 16 16 16 15 14 14 13 13 11 10 9 9 9 10 11 11 12 12 13
25 26 25 24 23 22 22 22 23 24 24 24 24 23 23 21 20 20 18 16 15 15 15 16 17 17 17 16 14 12 12 13 11 9 8 8 8 10 12 14 15 16 16 14 12 11 12 13 12 11 11 12 13 14 15 16 18 19 20 21 20 20 20 18 17 15 15 15 15 15 14 13 13 13 12 11 10 9 10 10 10 11 11 11 12 12
20 20 18 18 18 19 20 21 22 23 22 22 22 21 20 19 18 17 16 16 15 15 16 16 17 17 16 11 6 4 5 9 9 8 9 9 10 12 15 15 17 17 15 12 5 2 4 7 10 12 13 14 16 17 18 19 19 20 20 20 20 20 19 17 15 14 14 14 14 14 13 12 12 12 11 11 10 10 11 11 11 11 11 11 11 12
15 15 15 17 18 20 21 21 21 20 19 18 18 18 17 17 17 16 16 16 16 16 16 16 16 16 15 12 8 5 7 10 12 11 11 11 12 14 14 14 14 13 13 12 9 5 4 5 10 16 17 18 19 19 19 19 19 19 19 19 19 19 17 16 15 15 15 14 14 13 12 11 11 11 10 10 11 11 11 11 11 10 11 11 11 12
15 16 17 18 19 19 19 19 18 16 16 16 16 16 16 16 16 16 16 16 16 16 16 16 16 16 15 15 14 13 14 14 14 13 12 11 11 12 12 12 12 12 13 13 12 11 9 9 13 18 19 19 18 18 17 17 17 18 18 17 17 16 16 15 15 14 14 13 13 13 12 11 10 10 10 10 10 11 11 11 10 10 10 11 12 12
16 17 18 18 18 17 16 16 16 16 15 15 16 16 16 16 15 15 15 15 15 15 16 16 16 16 15 14 15 15 15 14 12 11 10 10 10 10 11 12 13 14 13 12 12 12 13 14 15 16 16 17 16 15 15 15 15 15 15 15 15 15 15 15 14 13 13 13 12 13 12 12 10 10 9 10 10 10 10 10 10 10 10 11 12 13
16 16 16 16 15 15 15 15 15 15 15 15 15 15 14 14 13 13 13 14 15 16 17 18 18 18 17 16 14 13 12 12 11 10 10 11 12 13 13 14 14 13 12 11 11 11 12 14 15 15 14 14 15 15 14 14 14 14 14 14 15 16 16 16 15 14 13 12 12 12 12 12 11 10 9 9 9 9 9 9 10 10 11 12 12 13
15 16 16 15 15 15 15 14 14 14 13 13 13 13 12 12 12 13 14 15 16 17 18 19 19 19 19 17 15 13 13 13 14 14 15 16 17 16 14 14 14 13 12 12 13 13 12 13 14 14 13 13 13 14 15 14 13 14 14 15 15 16 16 17 16 15 14 13 12 11 11 11 10 9 8 8 8 9 9 10 10 11 11 12 12 12
16 16 16 16 16 15 14 14 13 12 12 12 11 11 11 12 12 13 14 15 16 17 18 18 18 18 18 18 18 17 17 18 18 19 20 20 20 18 16 15 15 15 13 13 13 13 12 11 12 13 13 12 11 12 13 14 14 14 15 15 15 16 16 17 16 15 14 13 12 11 11 10 10 9 8 8 8 9 9 9 10 10 11 11 11 11
16 16 16 16 15 15 14 13 13 12 11 11 12 12 12 13 13 14 15 16 16 17 17 17 18 17 17 17 17 17 18 19 20 20 21 20 20 19 18 17 16 16 15 14 13 12 11 9 8 7 9 11 12 13 14 14 14 15 15 16 16 16 16 15 15 14 14 13 12 11 10 10 9 9 9 9 9 9 9 10 10 10 10 10 10 11
16 16 15 15 15 14 14 13 12 12 12 12 13 14 14 14 15 15 16 16 16 16 16 17 17 16 16 16 16 17 18 19 19 19 19 18 18 18 18 17 17 17 16 15 14 12 11 10 9 8 8 10 12 14 15 15 15 16 16 16 16 15 14 14 14 14 14 13 12 11 9 9 8 8 8 9 9 9 10 10 10 10 10 10 11 12
15 15 15 15 14 14 13 12 12 12 13 14 15 15 15 15 16 16 16 15 15 15 15 15 15 15 14 15 15 16 17 17 17 17 17 17 17 17 18 18 18 17 16 14 13 12 12 12 12 13 12 12 12 13 14 15 15 16 16 15 13 13 13 14 14 15 15 14 12 10 8 7 7 7 8 8 9 9 9 9 10 10 11 11 12 13
15 15 14 14 13 13 12 12 12 13 15 16 16 16 15 15 14 13 12 13 13 13 13 12 12 12 13 14 15 15 16 16 16 16 16 16 16 16 17 18 18 17 15 13 12 12 12 13 13 14 14 14 14 14 15 15 16 16 16 14 13 14 16 16 15 14 14 13 10 8 6 6 6 6 7 8 8 9 9 10 11 11 12 12 12 12
14 14 13 12 12 11 12 12 13 15 16 16 16 16 16 15 14 13 11 10 9 9 9 9 9 10 11 12 13 13 14 15 16 16 16 15 15 15 15 16 15 14 14 13 13 13 14 14 14 14 14 14 14 14 14 15 16 16 15 14 14 15 15 14 13 12 11 10 8 5 4 4 5 7 8 8 9 10 10 11 11 12 12 12 12 11
13 12 12 12 12 12 12 13 14 15 16 16 16 15 15 14 13 11 8 7 7 7 9 9 10 10 10 11 12 13 14 15 15 15 14 13 13 13 14 15 15 15 15 14 13 13 14 14 14 14 15 15 14 14 14 15 15 15 14 14 14 13 10 11 11 11 11 9 6 4 4 5 6 8 9 9 10 11 11 11 11 11 11 11 11 11
13 12 12 12 12 12 12 13 14 15 16 15 15 14 12 9 6 4 4 5 7 8 9 10 10 10 11 12 13 13 13 13 13 12 11 10 11 12 13 14 15 15 15 15 14 13 13 13 14 14 15 14 14 14 14 14 14 14 14 14 13 12 10 11 12 13 12 10 7 5 5 6 7 8 9 9 10 11 11 11 11 11 11 10 11 11
12 11 11 10 10 10 11 13 14 14 14 12 11 9 7 4 4 4 5 7 8 8 9 9 10 10 11 12 12 13 12 11 10 9 8 8 9 10 11 13 13 14 14 15 15 14 14 13 14 14 14 14 14 14 14 14 14 14 14 14 14 13 13 14 13 12 11 9 8 6 6 6 7 8 9 10 10 11 11 11 11 11 10 10 10 10
10 9 9 8 9 10 11 13 13 12 9 7 7 6 6 6 6 7 7 7 8 9 10 10 10 10 10 11 12 12 11 10 8 7 7 8 9 9 10 11 11 12 13 14 15 16 16 16 16 16 15 15 15 15 15 14 14 13 13 13 12 12 12 13 12 11 9 7 6 6 6 7 8 9 9 10 10 10 10 10 10 10 10 10 10 10
8 7 6 7 8 10 11 12 12 11 8 7 7 7 7 7 7 7 8 8 9 9 10 10 10 11 11 12 12 12 11 10 8 7 7 8 9 9 9 9 10 11 12 13 15 16 17 18 19 19 17 15 14 14 14 14 13 12 11 11 11 11 10 10 9 8 7 5 5 5 7 8 8 9 9 10 10 10 10 10 10 10 10 10 10 9
6 6 6 7 9 10 11 12 12 11 9 8 8 8 8 8 8 9 9 10 10 10 11 11 11 12 13 13 13 13 12 10 9 8 8 8 9 9 9 9 10 10 11 12 13 14 15 17 19 20 20 18 15 14 13 13 12 11 11 11 11 10 9 8 8 7 5 5 5 6 7 8 8 8 8 9 9 9 10 10 10 10 9 8 8 8
6 6 7 8 9 9 10 11 11 11 10 9 9 10 10 10 10 10 10 11 11 11 11 12 12 13 13 13 13 13 12 11 9 8 7 8 8 9 9 9 10 10 10 10 11 12 13 15 17 18 19 19 17 15 12 11 10 11 11 11 10 9 7 6 6 5 5 5 5 6 7 6 6 6 7 8 8 9 10 11 11 10 8 7 7 8
7 7 7 8 9 9 10 10 11 10 10 10 10 10 11 11 11 11 11 11 11 12 12 12 13 13 13 13 13 13 12 10 8 7 7 8 8 8 9 9 9 9 8 8 9 10 11 12 12 12 12 13 13 11 8 7 9 10 11 11 9 7 5 4 4 4 5 5 5 6 6 5 6 6 6 7 8 9 10 11 10 9 8 8 8 8
7 7 7 8 9 9 10 10 10 10 10 10 10 10 11 11 11 11 11 11 12 12 13 13 13 13 13 13 13 13 12 10 8 7 7 7 8 8 8 9 8 8 7 7 7 8 9 9 9 8 7 6 4 4 6 8 10 11 11 11 10 8 5 4 3 4 4 5 5 5 5 5 5 6 6 7 8 9 9 10 10 9 9 9 9 9
Wind_Direction
287 289 290 291 291 291 291 291 291 292 292 293 294 296 297 297 296 295 295 295 294 294 294 293 293 294 294 295 295 295 295 295 295 296 296 297 297 297 297 297 297 297 297 297 296 296 296 296 295 294 293 292 292 291 290 289 289 288 287 287 287 286 285 285 284 284 284 284 284 284 283 283 283 282 281 281 281 281 281 282 281 280 278 277 277 277
289 290 291 291 291 291 291 292 292 292 293 295 296 297 297 297 296 296 295 294 294 293 293 293 294 294 295 295 295 295 295 294 294 295 295 296 296 296 296 296 295 295 295 295 295 295 296 296 295 294 293 292 291 291 290 290 289 289 288 288 287 285 284 284 283 282 282 282 281 281 281 281 281 281 280 281 282 283 283 283 282 281 280 280 280 280
292 292 292 293 292 292 293 294 295 294 295 295 296 296 296 296 295 295 294 294 294 293 293 294 295 295 296 295 295 295 294 294 294 294 295 295 295 295 295 294 294 294 294 294 294 295 296 295 295 294 293 292 291 291 291 290 290 290 289 288 286 285 284 283 282 281 280 279 279 279 278 278 278 279 279 280 281 281 280 280 280 279 278 279 279 279
291 292 294 296 295 294 294 296 297 297 296 295 295 295 294 293 293 293 293 293 294 294 294 295 295 296 296 296 295 294 294 294 294 294 295 295 295 295 295 294 294 293 293 293 294 295 295 295 295 294 293 292 291 291 291 291 291 290 289 288 288 286 285 284 282 281 280 279 278 278 278 277 277 277 277 277 277 277 277 277 277 278 277 277 277 278
290 292 295 298 299 297 296 297 297 297 296 294 293 292 292 291 291 292 292 293 294 294 295 295 295 295 295 295 294 293 293 293 293 294 295 296 296 296 296 295 295 295 294 294 294 295 295 295 295 295 294 293 292 291 291 291 291 291 290 290 290 289 288 288 287 285 284 283 282 281 279 278 278 277 276 275 275 275 275 276 276 276 277 276 276 276
291 293 297 298 298 297 297 296 295 295 294 293 292 291 290 290 290 291 292 292 293 293 294 293 293 293 293 293 292 292 292 293 294 295 296 297 297 298 298 297 297 297 296 296 295 295 295 295 295 295 294 293 292 292 291 290 290 290 290 290 289 288 288 288 288 288 287 286 286 285 283 282 281 280 280 280 279 277 276 275 275 275 276 275 275 276
292 294 296 296 295 293 293 292 292 291 291 291 292 292 291 291 290 290 290 290 290 291 291 291 290 290 291 291 291 292 293 294 295 296 297 298 298 298 299 299 299 298 298 297 296 295 294 294 293 293 293 293 292 291 290 290 289 289 289 288 288 287 287 286 286 285 285 284 284 285 285 284 283 283 283 283 283 281 279 277 276 276 276 276 277 277
293 293 293 292 292 291 290 288 288 289 289 290 292 293 293 293 291 290 289 288 287 287 288 288 288 289 289 290 291 293 294 295 296 297 298 297 297 298 298 299 299 299 298 296 295 294 292 292 291 291 292 292 291 290 289 289 289 289 288 288 287 287 287 286 285 284 283 281 281 281 281 281 282 282 281 281 281 281 280 279 279 278 278 278 279 279
289 289 289 287 288 290 291 290 288 288 289 289 289 290 291 292 291 290 288 287 286 286 286 287 289 290 290 291 292 294 295 296 296 296 296 296 296 297 298 299 299 299 297 296 294 293 291 290 290 290 290 289 289 288 287 287 287 288 288 288 288 288 288 288 287 286 285 283 281 279 278 278 279 279 279 279 279 279 279 278 278 278 277 277 278 278
279 281 285 286 286 287 288 289 290 289 289 287 285 283 282 285 287 287 286 287 288 289 289 289 291 292 293 293 294 295 296 296 295 294 294 295 296 298 299 299 299 298 297 295 294 293 292 291 290 290 289 287 286 286 285 285 286 287 288 289 289 289 289 290 290 289 288 286 284 281 280 279 279 279 279 278 277 276 275 275 274 274 274 274 275 275
278 280 284 287 288 287 284 285 287 290 290 286 282 277 272 272 276 282 287 290 293 294 293 292 292 293 295 295 295 296 296 296 295 293 294 296 298 300 300 300 299 297 297 297 296 295 294 293 291 290 288 286 285 285 285 285 286 287 289 289 289 289 290 290 291 290 289 288 286 283 281 280 279 278 277 276 275 274 273 272 272 271 272 272 273 274
281 285 286 287 288 288 286 286 287 288 287 283 280 277 272 270 273 281 288 293 296 297 296 294 293 292 293 295 296 296 294 292 291 293 295 298 300 301 302 301 301 301 301 301 300 299 298 296 294 292 290 287 286 286 286 286 287 287 288 289 289 290 291 292 292 291 290 289 287 284 281 279 278 277 276 274 273 273 272 272 272 272 271 271 272 273
282 285 286 286 285 285 285 287 287 285 281 275 272 273 278 281 284 287 289 291 293 294 295 294 293 292 292 292 292 291 290 288 289 292 295 298 300 301 301 302 303 305 305 304 303 301 300 299 297 295 292 290 289 289 289 290 290 290 290 291 292 292 293 294 293 293 292 290 288 286 283 280 278 277 276 275 274 273 273 273 272 272 272 272 272 272
282 283 283 283 282 281 281 281 279 276 272 269 270 277 284 288 291 291 290 290 290 290 291 290 291 291 292 290 288 286 286 287 290 292 294 295 296 298 300 302 304 305 305 304 302 300 299 298 298 297 294 293 292 291 291 292 293 293 293 293 294 294 294 295 295 294 293 292 290 287 284 281 279 278 277 276 275 275 274 273 273 272 272 272 271 271
278 279 280 280 279 278 277 275 274 274 276 278 281 285 287 288 289 289 289 290 289 289 287 286 287 288 289 288 287 286 287 289 291 292 292 293 293 296 298 300 301 302 302 301 299 297 296 295 295 294 293 291 290 289 289 291 292 293 293 294 294 295 295 296 296 296 295 293 291 289 286 283 281 280 278 277 277 276 275 274 274 273 273 272 272 272
274 274 275 276 276 276 276 277 279 281 283 284 285 285 285 284 285 287 288 289 288 287 284 283 284 286 288 288 289 290 291 292 292 292 292 292 292 294 296 297 297 297 297 297 296 295 293 292 291 290 289 288 287 287 287 289 290 291 293 294 295 295 296 296 296 296 295 294 293 291 289 286 283 281 279 278 278 277 277 276 275 274 274 274 273 273
271 270 271 273 275 277 279 280 280 281 283 285 285 284 282 282 283 285 284 283 283 283 282 282 283 288 292 293 293 293 295 295 294 293 292 291 291 291 293 293 292 292 292 294 293 291 289 289 289 288 287 286 287 287 287 288 289 290 292 293 295 295 296 296 296 296 295 294 292 290 288 285 283 281 280 279 279 278 277 277 276 275 275 274 274 273
270 271 274 276 278 279 280 280 280 280 282 283 284 284 283 281 280 277 274 273 274 278 282 285 287 289 292 293 292 293 296 297 297 294 291 289 289 289 290 289 288 288 288 289 288 286 287 288 287 287 286 287 287 287 288 288 289 290 291 293 294 295 296 296 296 296 295 293 291 289 286 285 283 282 281 280 279 279 278 277 276 275 275 274 273 273
273 273 275 276 278 278 278 278 278 279 280 280 281 281 281 278 275 272 270 273 277 281 285 286 286 285 285 285 287 290 294 296 295 293 289 287 286 286 287 288 287 287 287 287 286 286 288 288 288 287 287 287 288 288 288 289 290 291 292 293 294 294 295 296 296 295 295 294 292 291 289 287 286 284 283 281 280 279 278 277 276 275 274 273 273 273
273 273 272 273 275 277 276 275 274 274 275 275 274 273 272 272 273 275 279 282 283 282 282 282 281 281 281 282 283 286 289 292 292 290 288 285 284 284 285 286 286 285 286 286 288 289 290 289 289 289 289 288 288 288 289 291 292 293 293 293 294 295 296 297 297 297 296 295 294 293 291 290 288 286 285 283 281 279 277 276 274 273 273 272 272 273
272 271 270 269 270 272 273 272 272 271 270 270 268 267 266 270 274 276 278 279 279 279 278 277 277 278 279 278 278 281 286 288 289 288 286 283 282 283 283 283 283 284 285 287 289 290 290 290 290 289 289 288 289 289 291 293 295 296 296 295 294 295 297 298 298 298 297 296 294 293 292 290 288 286 284 282 280 278 276 274 273 272 272 272 273 274
268 269 269 267 266 266 268 270 271 270 268 266 265 265 266 269 271 272 273 274 275 275 275 273 273 275 276 274 276 279 282 282 280 280 281 282 283 283 285 285 285 285 285 287 288 289 290 290 289 289 289 289 290 292 294 297 299 299 298 296 295 294 296 298 299 299 299 297 295 293 291 289 286 283 282 280 279 277 275 274 273 273 273 273 274 276
262 264 266 266 264 264 265 268 270 269 268 266 264 264 265 265 266 267 268 269 271 272 273 272 273 274 274 274 275 277 277 276 273 272 275 279 283 286 288 288 287 285 285 286 288 290 290 290 290 290 291 292 294 296 298 300 301 299 297 296 295 294 294 295 297 299 299 299 298 296 293 289 286 283 281 279 278 276 275 274 274 275 275 276 277 279
257 259 262 263 263 263 263 265 267 267 266 265 265 264 263 263 262 263 265 267 269 270 272 273 274 275 275 274 274 275 276 276 274 275 277 279 282 286 289 290 289 288 286 287 289 291 291 291 292 293 295 296 298 300 300 300 299 298 296 294 293 293 292 293 294 296 298 299 300 299 297 294 290 286 282 280 278 277 277 277 278 280 281 282 283 283
256 257 259 260 261 261 261 262 263 264 264 265 266 266 265 265 266 268 270 272 273 273 274 275 275 274 275 278 282 285 288 290 289 288 285 285 287 289 292 294 293 291 289 290 291 292 293 293 294 296 298 299 300 299 298 297 296 294 293 292 292 292 292 293 294 295 296 299 302 302 301 299 296 292 287 284 282 281 283 284 287 289 290 290 290 288
259 259 259 259 259 260 261 262 264 266 268 270 271 272 273 277 280 284 286 284 282 279 280 281 283 288 292 296 296 295 295 295 293 291 290 290 292 293 295 295 293 290 289 290 291 293 295 296 297 298 298 298 298 297 296 296 295 294 294 294 294 295 297 297 296 295 295 299 301 302 302 300 297 294 292 289 288 288 289 290 292 293 293 292 290 288
262 262 263 263 264 265 267 269 272 274 275 277 279 281 282 286 289 291 290 287 286 287 291 295 299 300 300 298 296 295 296 295 292 290 290 291 291 292 293 293 292 290 289 290 293 296 297 296 296 296 296 295 295 295 296 296 298 301 304 305 304 304 301 298 296 294 294 297 299 299 298 296 293 291 289 289 289 290 290 290 290 290 289 289 287 286
265 267 268 270 271 272 273 275 277 279 281 283 284 285 286 288 289 288 285 285 289 295 299 300 299 299 298 296 295 295 295 293 290 288 288 287 286 287 290 293 294 295 297 299 300 299 296 293 292 292 292 294 295 296 298 302 307 312 314 312 309 306 301 297 294 293 295 297 297 296 294 290 287 284 283 284 285 286 286 286 286 287 287 287 287 286
271 272 273 274 275 276 277 278 280 281 282 283 283 284 285 285 283 281 280 286 294 299 298 296 294 294 294 294 294 294 292 289 286 286 286 286 284 287 294 298 301 304 306 305 301 297 292 288 287 289 292 296 299 303 307 312 316 316 312 308 305 301 298 293 292 294 297 298 297 294 291 287 283 280 279 279 280 280 281 283 285 286 286 287 287 287
275 275 276 276 277 277 278 279 279 279 279 279 279 280 280 279 277 277 281 288 292 293 292 291 291 291 292 293 293 291 287 284 284 288 297 301 298 296 299 300 301 301 302 300 297 292 288 287 288 293 299 305 308 310 312 313 312 309 306 302 300 297 295 293 293 296 299 299 297 295 291 287 282 279 277 275 275 276 278 282 284 286 286 287 287 287
277 279 281 282 281 280 279 278 278 277 276 276 276 277 276 276 275 276 280 283 283 283 283 284 285 286 286 287 287 284 283 282 286 299 311 311 301 295 296 294 293 292 293 294 294 294 296 298 301 304 307 308 308 306 305 304 302 300 298 297 296 296 297 299 301 302 302 300 299 295 291 287 282 279 275 272 271 274 277 280 282 284 285 286 287 288
283 285 286 285 284 282 281 279 277 275 274 274 275 275 274 273 273 273 273 274 274 274 276 277 279 279 278 275 272 273 278 282 287 296 305 302 294 289 289 288 288 290 294 297 302 309 311 308 303 303 303 303 301 299 297 295 293 293 293 294 296 299 304 306 306 306 304 302 299 296 292 286 281 275 270 268 269 273 276 278 280 281 283 286 287 289
286 285 285 284 283 281 279 277 275 273 273 274 274 273 271 269 268 267 267 267 267 268 269 271 273 274 272 271 270 272 275 278 283 290 296 294 290 288 290 292 295 298 300 300 299 297 295 295 298 300 299 298 296 294 293 292 292 293 294 297 299 302 304 304 304 303 302 300 299 298 295 290 283 276 272 271 272 274 276 278 279 280 282 285 288 291
284 284 283 282 280 278 277 276 275 273 273 271 270 269 266 265 264 264 265 266 266 266 265 265 265 267 269 270 271 271 271 274 279 287 293 293 293 296 298 299 299 299 300 299 297 296 293 293 295 297 298 298 297 296 296 297 297 298 299 298 297 297 297 299 299 299 299 298 298 298 297 294 290 285 281 280 278 277 278 278 279 281 284 286 289 291
286 286 284 281 279 278 278 278 276 274 271 268 266 265 265 265 266 268 269 270 270 269 268 265 264 264 265 267 269 269 270 273 278 284 289 293 297 301 300 298 298 300 302 302 303 301 297 295 294 296 298 301 302 302 302 302 301 299 297 295 292 292 293 295 297 298 298 297 296 295 295 295 294 292 287 283 280 279 280 281 282 284 286 287 288 289
291 288 286 284 283 283 283 280 277 274 271 268 268 268 269 272 273 275 276 276 277 276 274 273 271 269 266 264 264 266 269 273 278 282 286 290 294 296 296 294 296 301 304 304 301 298 295 294 294 296 299 302 303 303 303 302 300 298 296 294 293 292 294 297 298 299 297 294 291 290 291 292 292 290 286 283 282 283 284 285 287 289 290 289 289 289
293 290 288 287 286 286 285 282 279 276 275 275 276 276 278 279 279 278 278 280 281 282 282 281 280 277 273 270 267 268 271 275 279 283 286 290 292 293 291 292 295 298 299 298 295 293 293 294 297 299 300 299 299 300 302 303 303 301 299 297 295 294 294 297 298 298 294 289 286 285 285 286 286 285 284 285 287 289 290 291 293 295 296 295 294 293
290 288 287 286 285 284 283 282 281 280 280 282 284 285 284 283 281 280 281 282 284 285 285 285 284 282 279 275 273 272 275 278 282 286 289 292 292 290 288 288 290 291 289 286 286 289 293 296 299 299 298 295 295 296 299 303 303 302 300 299 297 295 294 295 296 295 292 287 282 279 280 281 281 282 284 287 291 293 295 296 298 299 300 300 299 298
284 283 282 282 282 282 282 282 282 283 285 287 289 288 287 284 283 282 282 282 282 283 283 283 282 281 278 276 275 276 279 282 286 289 292 293 292 289 285 284 283 282 281 280 280 284 288 290 290 290 292 293 294 296 298 299 300 300 299 299 297 295 295 296 298 298 295 289 282 276 275 276 278 282 286 290 294 297 298 299 301 303 304 304 303 301
281 279 280 280 281 282 282 282 283 286 289 290 290 288 286 284 283 283 281 279 278 278 280 280 280 279 279 278 278 280 283 287 290 293 294 294 293 291 287 282 279 278 279 280 281 282 282 281 280 281 282 285 288 291 293 294 295 296 297 297 297 298 300 301 300 299 297 291 283 275 272 275 281 287 292 296 298 300 302 303 304 304 305 305 304 304
280 279 279 281 283 285 285 285 287 290 291 291 289 286 284 283 283 282 279 276 277 279 281 281 281 280 279 280 280 282 285 289 291 293 293 293 293 292 290 285 281 280 281 283 283 280 277 275 274 276 276 278 280 283 285 288 290 293 293 292 293 296 299 300 300 298 296 292 285 278 275 282 292 298 302 304 305 305 305 304 304 303 302 301 300 300
281 282 283 286 289 291 291 292 292 292 291 289 286 283 281 280 279 278 278 279 280 284 287 285 284 282 280 280 280 281 282 285 287 288 290 291 292 292 290 287 284 283 283 282 280 277 274 272 271 271 273 275 277 280 282 285 287 289 289 290 292 295 298 299 301 302 301 299 296 292 293 304 311 311 310 310 309 307 305 304 303 301 300 299 298 297
283 284 286 289 291 293 294 294 294 293 291 289 284 280 275 273 272 275 281 288 294 297 298 297 294 291 288 288 286 283 282 281 282 283 285 288 290 289 288 285 282 280 278 275 274 274 273 271 270 270 271 275 277 279 281 284 287 289 289 291 294 297 298 302 306 309 309 310 313 317 319 317 313 311 310 309 308 307 306 305 303 302 301 301 300 299
281 282 283 286 288 291 294 294 293 293 291 288 283 279 276 273 273 284 300 303 303 303 302 302 300 297 293 290 289 287 285 280 277 278 280 284 286 287 285 283 280 277 274 270 269 271 274 273 273 274 276 278 279 280 282 285 288 291 292 293 294 295 297 301 304 306 308 311 315 319 319 315 312 310 309 309 309 308 308 306 306 305 305 304 304 303
273 276 280 284 289 292 293 294 294 294 294 294 297 302 310 320 328 321 310 305 302 301 300 299 298 294 290 289 288 287 284 277 272 271 276 283 286 286 285 282 279 275 271 268 268 269 270 273 276 279 281 281 280 281 282 285 288 290 291 292 293 295 295 297 299 302 306 312 318 324 328 326 322 319 315 312 310 310 310 309 310 310 309 309 309 308
266 272 280 286 290 293 293 295 297 301 309 322 333 338 338 332 322 313 307 303 299 297 296 294 290 287 285 286 287 286 282 276 272 272 281 291 296 295 291 286 281 277 272 270 271 272 272 272 274 278 280 280 279 278 278 280 283 285 288 292 295 297 298 299 301 305 310 317 325 332 335 333 328 323 317 313 312 312 313 313 313 312 312 312 312 312
258 268 278 286 289 291 293 295 299 307 316 322 324 324 322 316 311 307 305 301 297 295 294 292 287 283 282 283 283 281 280 277 277 280 290 298 302 301 296 291 286 282 279 276 276 277 277 277 276 274 274 274 275 276 277 279 282 286 292 297 301 302 303 306 311 316 319 327 336 341 336 334 329 323 318 317 317 318 319 319 317 315 314 313 314 314
251 261 272 279 283 286 289 292 296 301 306 309 312 314 313 312 310 307 304 300 297 294 293 290 287 284 282 281 280 279 279 277 278 283 292 298 301 300 297 293 289 286 285 285 286 285 283 282 280 275 270 266 265 269 274 279 286 292 298 302 304 304 305 312 323 332 337 343 344 339 334 333 330 326 323 322 322 323 324 324 323 322 321 319 319 319
252 261 269 274 277 279 282 286 290 294 297 302 306 308 309 308 307 305 301 298 295 292 290 287 284 283 281 280 280 280 280 278 276 279 288 295 298 299 297 294 291 290 292 296 298 298 296 292 288 282 274 264 258 260 268 281 295 305 309 308 304 302 304 316 330 343 352 352 343 336 334 333 331 327 325 323 323 325 328 328 329 331 333 332 331 330
257 263 268 272 274 274 276 281 285 288 290 294 298 301 302 302 301 299 296 295 292 290 288 286 284 283 283 283 283 283 281 277 274 275 283 291 295 296 294 293 293 296 302 310 314 315 313 310 307 301 290 273 263 262 278 308 328 333 330 325 318 314 314 325 341 352 355 350 342 337 339 337 336 335 331 326 326 328 331 332 335 338 341 342 342 340
261 265 269 272 274 274 275 278 281 284 285 289 292 294 295 294 294 294 293 292 292 290 289 288 287 286 286 287 287 285 282 275 270 271 280 288 292 292 290 290 294 301 311 320 325 327 326 325 325 326 327 323 323 339 359 6 2 354 346 341 339 339 340 344 349 352 349 345 341 339 338 336 337 338 336 333 332 331 332 333 334 337 341 343 344 342